Regional Weather Roundup
Issued by NWS State College, PA

Home | Current Version | Previous Version | Graphics & Text | Print | Product List | Glossary On
Versions: 1 2 3 4 5 6 7 8 9 10 11 12 13 14 15 16 17 18 19 20 21 22 23 24 25 26 27 28 29 30 31 32 33 34 35 36 37 38 39 40 41 42 43 44 45 46 47 48 49 50
000
ASUS41 KCTP 282303
RWRCTP

REGIONAL WEATHER ROUNDUP
NATIONAL WEATHER SERVICE STATE COLLEGE PA
700 PM EDT THU MAY 28 2015

Note: "fair" indicates few or no clouds below 12,000 feet with no
significant weather and/or obstructions to visibility.

* = STATION THAT DOES NOT REPORT PRECIPITATION /E.G. RAIN...SNOW...ETC/
    THUNDER OR FOG.

PAZ002>004-007>009-013>016-020>023-029>032-290000-
WESTERN PENNSYLVANIA

CITY           SKY/WX    TMP DP  RH WIND       PRES   REMARKS
ERIE           SUNNY     74  50  42 NE8       30.24S
MEADVILLE      SUNNY     77  49  37 CALM      30.25R
FRANKLIN*      SUNNY     75  54  46 NE5       30.26R
NEW CASTLE     FAIR      78  55  44 CALM      30.23F
BEAVER COUNTY  SUNNY     77  54  44 CALM      30.23S
BUTLER*        SUNNY     75  52  43 E5        30.25R
PITTSBURGH INT MOSUNNY   79  54  41 E7        30.22S
PITTSBURGH     SUNNY     77  52  41 E5        30.21S
INDIANA*       SUNNY     77  50  38 CALM      30.26S
LATROBE        MOSUNNY   79  57  47 NE9       30.23S
WASHINGTON CO* SUNNY     77  59  53 NE7       30.23S
$$

PAZ004>006-010>012-017>019-024>028-033>037-041-042-045-046-049>053-290000-
CENTRAL PENNSYLVANIA

CITY           SKY/WX    TMP DP  RH WIND       PRES   REMARKS
BRADFORD       SUNNY     73  48  41 N5        30.27S
DUBOIS         MOSUNNY   78  49  35 NE5       30.25R
CLEARFIELD     MOSUNNY   78  51  38 CALM      30.24S
JOHNSTOWN      PTSUNNY   73  54  51 NE6       30.26S
ALTOONA        PTSUNNY   79  51  37 NE6       30.23S
STATE COLLEGE  SUNNY     79  50  36 VRB7      30.22S
WILLIAMSPORT   MOSUNNY   79  50  36 N7        30.19R
SELINSGROVE    MOSUNNY   82  52  35 N8        30.19R
FT INDIANTOWN  NOT AVBL
CAPITAL CITY   PTSUNNY   83  56  39 NW7       30.16S
HARRISBURG     PTSUNNY   81  65  58 W5        30.15S
YORK           MOSUNNY   81  61  50 N5        30.17R
$$

PAZ038>040-043-044-047-048-054-055-060>062-067>071-290000-
EASTERN PENNSYLVANIA

CITY           SKY/WX    TMP DP  RH WIND       PRES   REMARKS
SCRANTON       SUNNY     79  51  37 NW13      30.22R
MOUNT POCONO   MOSUNNY   73  51  46 NW10      30.24R
ALLENTOWN      MOSUNNY   84  54  35 N7        30.16R
QUAKERTOWN*    MOCLDY    82  57  42 NW3       30.17R
READING        MOSUNNY   84  56  38 NW6       30.16R
LANCASTER      MOSUNNY   82  58  43 NW6       30.17R
COATESVILLE    PTCLDY    82  61  47 N7        30.19R
POTTSTOWN      PTSUNNY   82  57  42 NW7       30.17R
BLUE BELL      PTSUNNY   86  61  42 NW3       30.15R
DOYLESTOWN     PTSUNNY   84  58  40 W7        30.15R
WILLOW GROVE   NOT AVBL
NORTH PHILA    CLOUDY    83  62  49 S6        30.16R
PHILADELPHIA   PTSUNNY   83  65  54 SW7       30.15R
$$



USA.gov is the U.S. government's official web portal to all federal, state and local government web resources and services.